CZ-6A DEB

Satellite information

Favourite Embed

Satellite Type and Status

DEBRISIN ORBIT

Key statistics

Satellite CZ-6A DEB at a glance.

Uptime

494

Days in orbit

Revolutions

≈ 14.2

Per day

Orbit

LEO

Low Earth Orbit

Inclination

89.0

Latest

Satellite identification and parameters

Extended collection of information and parameters for CZ-6A DEB.

Object identification

Identified? True

Debris? True

Object name: CZ-6A DEB

International designator: 2024-140LM

Object number (NORAD): 60962

Object ID (CCSDS): 60962

Country: PEOPLES REPUBLIC OF CHINA (PRC)

Current information (Y/N): Y

RCS size: SMALL

Orbital parameters

Period: 101.267 minutes

Inclination: 89.0228 deg

SMA: 7196.77 km

Apoapsis: 851.925 km

Periapsis: 785.345 km

RAAN: 297.0466 deg

Eccentricy: 0.00462566

Argument of periapsis: 50.338 deg

Mean anomaly: 310.1877 deg

Mean motion: 14.2198932 rev/day

Mean motion (dot): 0.00003289 rev/day2

B* drag term: 0.0014670525 1/REarth

Two-line elements (TLE)

Creation date: Dec. 12, 2025, 3:16 a.m.

Reference frame: TEME

Reference center: EARTH

Epoch: Dec. 11, 2025, 8:20 p.m. UTC

TLE line 0: 0 CZ-6A DEB

TLE line 1: 1 60962U 24140LM 25345.84724889 .00003289 00000-0 14671-2 0 9996

TLE line 2: 2 60962 89.0228 297.0466 0046257 50.3380 310.1877 14.21989320 67921

Live tracking on map

Real-time ground track for satellite CZ-6A DEB.

In-orbit conjunctions

A list of the most updated potential collisions computed for object CZ-6A DEB.

Target Orbit TCA Probability of collision Miss distance Type
CZ-6A DEB SSO 2025-11-23 19:27:12 0.0001246351 554.0 (m) DEBRIS
SCOUT G-1 R/B LEO 2025-10-28 21:58:47 0.0001256424 440.0 (m) ROCKET BODY
SL-16 DEB LEO 2025-06-24 17:14:33 0.000103416 377.0 (m) DEBRIS
DMSP 5D-2 F8 DEB SSO 2025-01-19 12:47:56 0.000132175 361.0 (m) DEBRIS
SL-14 DEB LEO 2025-01-18 00:26:42 0.0007610443 628.0 (m) DEBRIS

Associated space launch

18 Low Earth Orbit communication satellites with Ku, Q and V band payloads for the G60 constellation operated by Shanghai Spacecom Satellite Technology (SSST) with funding backed by the Shanghai local government. Initial constellation will consist of 1296 satellites by 2027 with long term plans to expand it to 12000 satellites.

CZ-6A DEB was lifted into orbit during the mission ‘Long March 6A | G60 Polar Group 01’, on board a Long March 6A space rocket.

The launch took place on Aug. 6, 2024, 6:42 a.m. from Launch Complex 9A.

For more information about the launch, click the button.

Launch to space Long March 6A | G60 Polar Group 01
Long March 6A | G60 Polar Group 01

Agency: N/A

Status: Launch Successful

Launch date: Aug. 6, 2024, 6:42 a.m. UTC

Rocket: Long March 6A

Launch pad: Launch Complex 9A

Location: Taiyuan Satellite Launch Center, People's Republic of China

...

Latest news about this satellite

News about space launch
Brightness of first Chinese broadband constellation satellites alarms astronomers

The first satellites of a Chinese broadband constellation are significantly brighter than those of Western systems, posing a new challenge for astronomers.

News about space launch
Chinese rocket stage breaks up into cloud of more than 700 pieces of space debris

HELSINKI — A Chinese Long March 6A rocket’s upper stage has fragmented into a cloud of over 700 pieces of space debris, adding to concerns about long-term orbital safety. China […]

News about space launch
China's Thousand Sails Megaconstellation Kicks Off with Dangerous Debris Field

China's Thousand Sails Megaconstellation Kicks Off with Dangerous Debris Field


Newsletter sign-up

Weekly statistics, charts and insights to help you stay on top of the space industry.